Waarnemingen

Advertentie
Mijn weer
Auch, Frankrijk (7622): temperatuur & dauwpunt: 17.07.2017 08:00:00 - 23.07.2017 08:00:00 (CEST)Auch, Frankrijk (7622): temperatuur 5cm: 17.07.2017 08:00:00 - 23.07.2017 08:00:00 (CEST)Auch, Frankrijk (7622): temperatuur -20cm & temperatuur -100cm: 17.07.2017 08:00:00 - 23.07.2017 08:00:00 (CEST)Auch, Frankrijk (7622): windsnelheid & windstoten: 17.07.2017 08:00:00 - 23.07.2017 08:00:00 (CEST)Auch, Frankrijk (7622): windrichting: 17.07.2017 08:00:00 - 23.07.2017 08:00:00 (CEST)Auch, Frankrijk (7622): luchtdruk: 17.07.2017 08:00:00 - 23.07.2017 08:00:00 (CEST)Auch, Frankrijk (7622): zicht: 17.07.2017 08:00:00 - 23.07.2017 08:00:00 (CEST)Auch, Frankrijk (7622): Zonneschijnduur: 17.07.2017 08:00:00 - 23.07.2017 08:00:00 (CEST)Auch, Frankrijk (7622): neerslag: 17.07.2017 08:00:00 - 23.07.2017 08:00:00 (CEST)
Datum & Tijd tt [°C] td [°C] tt 5cm [°C] tt -20cm [°C] tt -100cm [°C] ff [km/u] ff [kn] fx [km/u] fx [kn] dd ppp [hPa] vv [km] sd [min] rr [mm]
23.07.2017 08:00:00 18,3 15,2 17,8 22,9 21,0 3 2 5 3 WZW 1021,6 20 1 0,0
23.07.2017 07:00:00 18,1 15,0 17,7 23,0 21,0 3 1 7 4 WZW 1021,5 20 0 0,0
23.07.2017 06:00:00 18,2 14,9 17,7 23,2 21,0 4 2 7 4 W 1021,3 20 0 0,0
23.07.2017 05:00:00 18,4 14,7 17,8 23,3 21,0 2 1 6 3 W 1021,0 20 0 0,0
23.07.2017 04:00:00 18,7 14,2 18,1 23,4 21,0 3 1 14 7 WZW 1021,0 20 0 0,0
23.07.2017 03:00:00 19,1 14,4 18,6 23,5 21,0 4 2 15 8 W 1021,0 20 0 0,0
23.07.2017 02:00:00 19,6 14,6 19,1 23,6 21,0 8 4 15 8 WNW 1020,9 20 0 0,0
23.07.2017 01:00:00 20,1 14,7 19,7 23,7 21,0 9 5 23 12 WNW 1020,7 20 0 0,0
23.07.2017 00:00:00 21,0 15,1 20,4 23,8 21,0 9 5 18 10 WNW 1020,1 20 0 0,0
22.07.2017 23:00:00 21,5 15,6 20,8 23,9 21,0 5 3 16 9 W 1019,5 20 0 0,0
22.07.2017 22:00:00 21,9 15,0 21,4 23,9 21,0 8 4 19 11 W 1018,5 20 0 0,0
22.07.2017 21:00:00 22,5 15,3 22,0 23,9 21,0 9 5 20 11 WNW 1017,5 20 0 0,0
22.07.2017 20:00:00 23,3 14,6 23,1 23,8 21,0 11 6 28 15 WNW 1016,8 20 16 0,0
22.07.2017 19:00:00 24,8 14,9 25,2 23,6 21,0 13 7 24 13 WNW 1016,2 20 21 0,0
22.07.2017 18:00:00 25,1 15,4 25,8 23,3 21,0 9 5 18 10 W 1015,6 20 11 0,0
22.07.2017 17:00:00 26,0 15,1 27,7 23,1 21,0 9 5 16 9 W 1015,4 19 29 0,0
22.07.2017 16:00:00 25,3 14,4 28,2 22,8 21,0 11 6 17 9 NNW 1015,2 20 37 0,0
22.07.2017 15:00:00 24,3 14,4 27,2 22,5 21,0 4 2 12 7 WNW 1015,3 20 11 0,0
22.07.2017 14:00:00 23,8 15,3 27,7 22,4 21,0 3 2 9 5 Z 1015,4 20 35 0,0
22.07.2017 13:00:00 23,0 15,3 24,2 22,3 21,0 4 2 13 7 WZW 1015,6 20 48 0,0
22.07.2017 12:00:00 20,5 15,1 20,7 22,3 21,0 2 1 6 3 W 1016,1 18 0 0,0
22.07.2017 11:00:00 19,1 16,0 19,6 22,3 21,0 4 2 6 4 N 1015,8 20 0 0,0
22.07.2017 10:00:00 18,7 16,3 19,0 22,4 21,0 0 0 4 2 N 1015,8 20 0 0,0
22.07.2017 09:00:00 18,1 17,3 17,8 22,5 21,0 0 0 5 3 N 1015,5 20 0 0,0
22.07.2017 08:00:00 17,2 16,9 16,8 22,6 21,0 0 0 4 2 N 1015,1 20 0 0,0
22.07.2017 07:00:00 16,6 16,3 16,3 22,7 21,1 0 0 4 2 N 1015,1 20 0 0,0
22.07.2017 06:00:00 16,3 16,0 15,4 22,9 21,1 2 1 4 2 NW 1015,1 20 0 0,0
22.07.2017 05:00:00 15,9 15,4 15,0 23,0 21,1 0 0 4 2 N 1015,2 12 0 0,0
22.07.2017 04:00:00 15,9 15,4 15,1 23,1 21,1 0 0 4 2 N 1015,2 20 0 0,0
22.07.2017 03:00:00 15,6 15,0 14,4 23,3 21,0 0 0 6 3 N 1015,3 13 0 0,0
22.07.2017 02:00:00 16,0 15,2 14,1 23,4 21,0 5 3 7 4 ZZW 1015,2 14 0 0,0
22.07.2017 01:00:00 17,1 16,0 16,6 23,5 21,0 0 0 7 4 N 1015,2 20 0 0,0
22.07.2017 00:00:00 17,3 16,3 16,8 23,6 21,0 4 2 6 3 W 1015,0 20 0 0,0
21.07.2017 23:00:00 17,5 16,2 16,5 23,7 21,1 0 0 5 3 N 1014,9 10 0 0,0
21.07.2017 22:00:00 18,3 14,8 16,4 23,8 21,0 3 2 18 10 Z 1014,7 10 0 3,5
21.07.2017 21:00:00 20,2 14,8 19,9 23,8 21,1 12 7 23 12 NW 1013,8 20 0 0,0
21.07.2017 20:00:00 21,6 15,2 21,6 23,8 21,1 9 5 19 11 W 1013,2 20 0 0,0
21.07.2017 19:00:00 21,9 15,5 22,1 23,6 21,1 8 4 20 11 W 1012,5 20 0 0,0
21.07.2017 18:00:00 22,4 15,7 23,3 23,5 21,1 11 6 17 9 NW 1012,3 20 0 0,0
21.07.2017 17:00:00 23,0 16,1 25,7 23,3 21,0 10 5 21 12 NNW 1012,2 20 14 0,0
21.07.2017 16:00:00 22,9 15,5 25,7 23,1 21,0 6 3 14 8 NNW 1012,4 20 0 0,0
21.07.2017 15:00:00 22,8 15,6 25,3 22,9 21,1 7 4 17 9 N 1012,3 20 17 0,0
21.07.2017 14:00:00 22,2 15,8 25,1 22,7 21,1 6 3 16 9 N 1012,8 20 22 0,0
21.07.2017 13:00:00 20,6 15,4 22,2 22,6 21,1 6 3 16 9 N 1013,3 20 12 0,0
21.07.2017 12:00:00 19,5 15,2 23,6 22,6 21,0 6 4 14 8 N 1013,6 20 40 0,0
21.07.2017 11:00:00 18,3 15,2 17,3 22,7 21,0 7 4 13 7 NNO 1013,7 20 14 0,0
21.07.2017 10:00:00 16,8 15,0 15,7 22,8 21,0 5 3 13 7 NW 1013,9 20 0 0,0
21.07.2017 09:00:00 16,1 14,6 15,3 22,9 21,0 8 4 14 7 NO 1013,6 20 0 1,0
21.07.2017 08:00:00 16,6 14,2 15,4 23,1 21,1 6 3 13 7 WNW 1014,6 11 0 1,0
21.07.2017 07:00:00 17,5 13,6 17,1 23,1 21,0 5 3 10 5 NNW 1014,0 20 0 0,0
21.07.2017 06:00:00 17,7 14,0 17,2 23,2 21,0 5 3 9 5 N 1014,1 20 0 0,0
21.07.2017 05:00:00 17,9 14,2 17,4 23,3 21,0 6 4 11 6 N 1014,2 20 0 0,0
21.07.2017 04:00:00 18,1 15,4 17,6 23,4 21,0 5 3 7 4 NNW 1014,6 20 0 0,0
21.07.2017 03:00:00 18,4 15,6 17,9 23,5 21,0 2 1 4 2 ZZW 1015,3 20 0 0,0
21.07.2017 02:00:00 18,6 15,5 18,1 23,7 21,0 0 0 5 3 N 1015,9 20 0 0,0
21.07.2017 01:00:00 18,8 15,3 18,3 23,8 21,0 0 0 10 5 N 1016,1 20 0 0,0
21.07.2017 00:00:00 19,0 15,3 18,5 23,8 21,0 3 2 13 7 W 1016,5 20 0 0,0
20.07.2017 23:00:00 19,2 15,1 18,7 23,9 21,0 2 1 6 3 W 1016,9 20 0 0,0
20.07.2017 22:00:00 19,5 15,2 19,0 24,0 21,0 3 1 6 4 ZW 1016,8 20 0 0,0
20.07.2017 21:00:00 19,9 15,1 19,7 24,1 21,0 4 2 14 7 W 1016,5 20 0 0,0
20.07.2017 20:00:00 20,4 15,8 20,5 24,1 21,0 8 4 23 13 WNW 1016,6 20 0 0,0
20.07.2017 19:00:00 20,9 15,2 21,1 24,1 21,0 11 6 18 10 WNW 1016,4 20 0 0,0
20.07.2017 18:00:00 21,3 15,6 21,5 24,1 21,0 6 4 18 10 NW 1016,6 20 0 0,0
20.07.2017 17:00:00 21,6 15,2 22,9 24,1 21,0 11 6 22 12 NNW 1016,6 20 0 0,0
20.07.2017 16:00:00 21,8 15,4 23,0 24,0 21,0 11 6 21 11 NNW 1016,7 20 0 0,0
20.07.2017 15:00:00 22,1 15,9 22,9 24,0 21,0 10 6 16 9 NW 1016,7 20 0 0,0
20.07.2017 14:00:00 21,2 17,2 20,1 24,0 21,0 5 3 14 8 WNW 1017,0 20 0 0,0
20.07.2017 13:00:00 19,3 16,5 19,1 24,0 21,0 8 5 23 12 WNW 1017,3 9 0 0,0
20.07.2017 12:00:00 20,7 16,5 21,9 24,1 20,9 7 4 19 11 NW 1016,8 20 0 0,0
20.07.2017 11:00:00 20,5 16,9 20,4 24,2 20,9 10 5 20 11 NW 1016,8 20 0 0,0
20.07.2017 10:00:00 19,5 17,5 19,4 24,3 20,9 9 5 16 9 NW 1016,8 20 0 0,0
20.07.2017 09:00:00 19,1 17,4 19,2 24,4 20,9 4 2 9 5 W 1016,7 20 0 0,0
20.07.2017 08:00:00 19,3 18,1 19,0 24,6 20,9 5 3 12 7 NW 1016,3 17 0 0,0
20.07.2017 07:00:00 19,1 18,1 18,9 24,7 20,9 2 1 7 4 W 1016,1 12 0 0,0
20.07.2017 06:00:00 19,2 18,2 18,9 24,8 20,9 4 2 10 5 WZW 1016,0 13 0 0,0
20.07.2017 05:00:00 19,3 18,3 18,9 25,0 20,9 8 4 14 8 W 1015,9 13 0 0,0
20.07.2017 04:00:00 19,5 18,3 18,9 25,1 20,9 3 2 10 5 W 1015,8 13 0 0,0
20.07.2017 03:00:00 19,9 18,7 19,2 25,2 20,9 3 2 17 9 W 1016,0 14 0 0,0
20.07.2017 02:00:00 20,1 19,1 19,5 25,4 20,9 10 5 18 10 WNW 1015,8 9 0 0,0
20.07.2017 01:00:00 20,5 19,7 20,0 25,5 20,9 5 3 18 10 ZW 1015,8 9 0 1,2
20.07.2017 00:00:00 20,8 19,8 20,2 25,6 20,8 8 4 18 10 NNW 1014,9 8 0 1,1
19.07.2017 23:00:00 21,3 19,8 20,1 25,7 20,9 6 3 33 18 OZO 1014,1 13 0 3,8
19.07.2017 22:00:00 22,8 19,2 22,2 25,8 20,9 18 10 35 19 NNW 1012,4 19 0 0,0
19.07.2017 21:00:00 24,8 19,0 24,4 25,8 20,9 15 8 32 17 WNW 1012,1 20 0 0,0
19.07.2017 20:00:00 26,2 18,6 25,9 25,7 20,9 9 5 19 10 WNW 1011,5 20 5 0,0
19.07.2017 19:00:00 27,4 18,4 28,4 25,5 20,8 11 6 20 11 NW 1011,8 20 16 0,0
19.07.2017 18:00:00 27,6 18,6 29,1 25,4 20,8 11 6 19 10 NW 1011,8 20 9 0,0
19.07.2017 17:00:00 28,5 19,4 30,2 25,2 20,9 8 4 19 10 NW 1011,8 20 11 0,0
19.07.2017 16:00:00 27,7 17,8 29,5 24,9 20,8 6 4 19 11 NW 1012,0 20 31 0,0
19.07.2017 15:00:00 26,9 18,5 29,4 24,7 20,8 10 5 21 11 NNW 1011,8 19 34 0,0
19.07.2017 14:00:00 26,1 19,5 27,3 24,6 20,8 10 6 21 12 WNW 1011,6 20 37 0,0
19.07.2017 13:00:00 24,7 19,5 26,5 24,5 20,8 14 8 26 14 W 1012,1 20 10 0,0
19.07.2017 12:00:00 24,7 19,5 27,3 24,5 20,8 8 4 18 10 W 1012,2 20 29 0,0
19.07.2017 11:00:00 23,3 19,9 22,4 24,5 20,8 9 5 21 11 ZW 1012,2 19 16 0,0
19.07.2017 10:00:00 22,3 18,9 22,5 24,6 20,8 14 8 22 12 WZW 1012,0 20 19 0,0
19.07.2017 09:00:00 24,1 20,0 23,0 24,7 20,8 9 5 18 10 ZZO 1011,6 20 21 0,0
19.07.2017 08:00:00 22,8 20,0 20,7 24,8 20,8 8 5 18 10 Z 1010,9 20 48 0,0
19.07.2017 07:00:00 21,6 19,5 20,5 25,0 20,8 5 3 15 8 O 1009,5 20 0 0,0
19.07.2017 06:00:00 21,8 19,5 21,1 25,1 20,8 6 3 21 11 OZO 1010,4 20 0 0,0
19.07.2017 05:00:00 22,4 19,2 21,7 25,2 20,7 11 6 36 19 ZO 1010,4 20 0 0,0
19.07.2017 04:00:00 22,3 19,8 20,9 25,4 20,7 9 5 32 17 Z 1011,6 20 0 0,0
19.07.2017 03:00:00 21,8 19,7 20,1 25,6 20,7 6 3 19 11 OZO 1012,6 20 0 0,0
19.07.2017 02:00:00 22,0 18,8 20,1 25,7 20,7 3 2 27 14 N 1015,4 18 0 0,6
19.07.2017 01:00:00 24,1 19,0 21,4 25,8 20,8 6 3 10 6 ZZO 1013,9 14 0 0,0
19.07.2017 00:00:00 24,4 17,4 22,4 25,9 20,7 8 5 29 16 ZO 1012,8 20 0 0,0
18.07.2017 23:00:00 24,8 18,3 21,6 26,0 20,7 17 9 29 16 N 1012,0 20 0 0,4
18.07.2017 22:00:00 26,7 19,3 25,1 26,0 20,7 14 7 45 24 ZZW 1011,9 20 0 0,0
18.07.2017 21:00:00 27,2 18,2 26,6 25,9 20,7 11 6 35 19 OZO 1008,9 20 6 0,0
18.07.2017 20:00:00 29,1 18,5 29,7 25,8 20,7 14 7 32 17 OZO 1009,1 20 39 0,0
18.07.2017 19:00:00 30,2 18,6 31,5 25,6 20,7 19 10 37 20 O 1008,6 20 29 0,0
18.07.2017 18:00:00 31,5 19,2 33,1 25,3 20,7 19 10 36 20 OZO 1009,2 20 32 0,0
18.07.2017 17:00:00 32,7 17,3 34,7 24,9 20,7 17 9 32 18 OZO 1009,5 20 53 0,0
18.07.2017 16:00:00 33,6 17,7 36,0 24,5 20,7 18 10 33 18 OZO 1009,8 20 60 0,0
18.07.2017 15:00:00 32,8 17,0 36,3 24,2 20,7 18 10 34 19 OZO 1010,3 20 60 0,0
18.07.2017 14:00:00 32,0 16,7 35,0 23,9 20,7 16 9 31 17 O 1011,0 20 60 0,0
18.07.2017 13:00:00 30,8 17,8 33,7 23,8 20,7 12 7 29 16 OZO 1011,3 18 60 0,0
18.07.2017 12:00:00 29,0 17,2 31,7 23,6 20,7 15 8 33 18 OZO 1011,6 20 60 0,0
18.07.2017 11:00:00 27,5 17,7 27,2 23,7 20,7 13 7 33 18 ZO 1011,8 0,2 60 0,0
18.07.2017 10:00:00 25,3 17,7 25,1 23,7 20,7 16 9 30 16 ZO 1012,1 0,2 60 0,0
18.07.2017 09:00:00 23,5 17,9 22,4 23,9 20,7 11 6 31 17 ZO 1012,3 2,0 60 0,0
18.07.2017 08:00:00 21,7 17,7 19,7 24,0 20,7 12 7 21 12 ZZO 1012,3 1,7 48 0,0
18.07.2017 07:00:00 20,4 17,4 19,3 24,1 20,6 6 4 23 12 ZZO 1012,2 20 3 0,0
18.07.2017 06:00:00 20,5 17,3 19,3 24,3 20,6 8 4 20 11 ZZO 1012,2 19 0 0,0
18.07.2017 05:00:00 20,6 17,2 18,4 24,4 20,6 9 5 17 9 ZZO 1012,3 19 0 0,0
18.07.2017 04:00:00 20,9 17,3 19,2 24,6 20,6 8 5 18 10 ZO 1012,4 20 0 0,0
18.07.2017 03:00:00 20,9 15,9 18,1 24,8 20,6 5 3 14 7 OZO 1012,9 20 0 0,0
18.07.2017 02:00:00 21,6 15,0 18,4 25,0 20,6 4 2 13 7 ZO 1013,3 20 0 0,0
18.07.2017 01:00:00 22,3 13,1 20,2 25,2 20,7 5 3 14 8 OZO 1013,3 20 0 0,0
18.07.2017 00:00:00 23,1 11,2 20,7 25,3 20,6 6 3 15 8 O 1013,3 18 0 0,0
17.07.2017 23:00:00 24,0 11,0 22,2 25,4 20,6 6 3 18 10 ONO 1013,6 20 0 0,0
17.07.2017 22:00:00 25,7 12,2 23,1 25,4 20,6 6 3 31 17 NO 1013,7 20 4 0,0
17.07.2017 21:00:00 27,7 13,2 27,2 25,4 20,6 15 8 31 17 ZO 1013,1 20 42 0,0
17.07.2017 20:00:00 29,1 12,9 29,1 25,3 20,6 10 6 33 18 OZO 1013,5 20 23 0,0
17.07.2017 19:00:00 29,8 12,7 28,5 25,1 20,6 13 7 28 15 ZZO 1013,3 20 0 0,0
17.07.2017 18:00:00 30,9 12,8 30,5 24,8 20,6 16 9 27 15 O 1014,0 20 11 0,0
17.07.2017 17:00:00 33,5 15,0 37,5 24,4 20,6 12 6 31 17 OZO 1013,9 19 60 0,0
17.07.2017 16:00:00 33,1 14,2 35,1 24,1 20,6 16 9 29 16 OZO 1013,8 20 56 0,0
17.07.2017 15:00:00 32,7 14,3 33,5 23,8 20,6 13 7 26 14 O 1014,1 19 31 0,0
17.07.2017 14:00:00 31,8 13,5 32,7 23,6 20,6 14 8 34 18 ZO 1014,6 20 46 0,0
17.07.2017 13:00:00 30,7 13,9 34,0 23,4 20,6 16 9 30 16 O 1015,0 20 60 0,0
17.07.2017 12:00:00 29,7 13,0 32,0 23,4 20,6 11 6 31 17 OZO 1015,5 20 60 0,2
17.07.2017 11:00:00 28,0 13,1 27,9 23,3 20,6 16 9 30 16 OZO 1016,0 0,8 60 0,0
17.07.2017 10:00:00 26,6 13,0 25,6 23,5 20,6 12 7 32 17 OZO 1016,6 0,1 60 0,0
17.07.2017 09:00:00 24,6 12,2 22,1 23,6 20,5 13 7 30 16 ZO 1016,7 0,1 56 0,0
17.07.2017 08:00:00 19,1 18,1 14,3 23,8 20,6 2 1 5 3 N 1017,3 6 45 0,0

tt = temperatuur
td = dauwpunt
tt 5cm = temperatuur 5cm
tt -20cm = temperatuur -20cm
tt -100cm = temperatuur -100cm
ff = windsnelheid
fx = windstoten
dd = windrichting
ppp = luchtdruk
vv = zicht
sd = Zonneschijnduur
rr = neerslag

Weerstations in de omgeving